Weather History for Palmer, AK

Change the Weather History Date:

Tuesday, December 3, 2013

  Actual Average Record
Temperature  
Mean Temperature 10 °F -  
Max Temperature 19 °F 20 °F 51 °F (2002)
Min Temperature 1 °F 6 °F -22 °F (1967)
Degree Days  
Heating Degree Days 55    
Moisture  
Dew Point 4 °F    
Average Humidity 81    
Maximum Humidity 91    
Minimum Humidity 62    
Precipitation  
Precipitation 0.00 in - - ()
Sea Level Pressure  
Sea Level Pressure 30.67 in    
Wind  
Wind Speed 1 mph (NNE)    
Max Wind Speed 7 mph    
Max Gust Speed -    
Visibility 10 miles    
Events      
Averages and records for this station are not official NWS values.
T = Trace of Precipitation, MM = Missing Value Source: NWS Daily Summary

Daily Weather History Graph

Daily Weather History Graph

Search for Another Location

Airport:

Trip Planner

Search our weather history database for the weather conditions in past years. The results will help you decide how hot, cold, wet, or windy it might be!

Date:

Astronomy

Dec. 03, 2013 Rise Set
Actual Time 9:51 AM AKST 3:41 PM AKST
Civil Twilight 8:50 AM AKST 4:41 PM AKST
Nautical Twilight 7:51 AM AKST 5:40 PM AKST
Astronomical Twilight 6:58 AM AKST 6:34 PM AKST
Moon 10:20 AM AKST (12/3) 5:05 PM AKST (12/3)
Length of Visible Light 7h 50m
Length of Day
5h 50m
New Moon, 1% of the Moon is Illuminated
Dec 3
New Moon
Dec 9
First Quarter
Dec 17
Full
Dec 25
Last Quarter
Jan 1
New

Hourly Weather History & Observations

Time (AKST) Temp. Windchill Dew Point Humidity Pressure Visibility Wind Dir Wind Speed Gust Speed Precip Events Conditions
12:53 AM 5.0 °F - 1.0 °F 84% 30.75 in 10.0 mi Calm Calm - N/A   Clear
1:53 AM 3.9 °F - -0.0 °F 84% 30.75 in 10.0 mi Calm Calm - N/A   Clear
2:53 AM 5.0 °F - 1.9 °F 87% 30.75 in 9.0 mi Calm Calm - N/A   Clear
3:53 AM 3.9 °F - -0.0 °F 84% 30.74 in 10.0 mi Calm Calm - N/A   Clear
4:53 AM 3.0 °F - -2.9 °F 76% 30.73 in 10.0 mi Calm Calm - N/A   Clear
5:53 AM 12.9 °F 3.8 °F 1.9 °F 62% 30.70 in 10.0 mi North 5.8 mph - N/A   Clear
6:53 AM 3.0 °F - -0.9 °F 84% 30.69 in 10.0 mi Calm Calm - N/A   Clear
7:53 AM 3.9 °F - 1.0 °F 88% 30.69 in 10.0 mi Calm Calm - N/A   Clear
8:53 AM 1.9 °F -5.6 °F -0.9 °F 88% 30.71 in 8.0 mi East 3.5 mph - N/A   Clear
9:53 AM 3.0 °F - -0.0 °F 87% 30.70 in 10.0 mi Calm Calm - N/A   Clear
10:53 AM 3.9 °F - 1.9 °F 91% 30.71 in 10.0 mi Calm Calm - N/A   Clear
11:53 AM 5.0 °F - 1.9 °F 87% 30.69 in 10.0 mi Calm Calm - N/A   Clear
12:53 PM 7.0 °F - 3.9 °F 87% 30.69 in 10.0 mi Calm Calm - N/A   Clear
1:53 PM 8.1 °F - 5.0 °F 87% 30.68 in 10.0 mi Calm Calm - N/A   Clear
2:53 PM 10.0 °F - 6.1 °F 84% 30.66 in 10.0 mi Calm Calm - N/A   Clear
3:53 PM 9.0 °F - 6.1 °F 88% 30.64 in 10.0 mi Calm Calm - N/A   Clear
4:53 PM 10.0 °F 1.8 °F 6.1 °F 84% 30.62 in 10.0 mi NE 4.6 mph - N/A   Clear
5:53 PM 10.0 °F - 1.9 °F 70% 30.61 in 10.0 mi Calm Calm - N/A   Clear
6:53 PM 12.0 °F - 8.1 °F 84% 30.61 in 10.0 mi Calm Calm - N/A   Clear
7:53 PM 17.1 °F 8.7 °F 8.1 °F 68% 30.60 in 10.0 mi North 5.8 mph - N/A   Clear
8:53 PM 12.9 °F - 9.0 °F 84% 30.59 in 10.0 mi Calm Calm - N/A   Partly Cloudy
9:53 PM 19.0 °F 10.0 °F 9.0 °F 65% 30.59 in 10.0 mi North 6.9 mph - N/A   Mostly Cloudy
10:53 PM 16.0 °F - 10.9 °F 81% 30.57 in 10.0 mi Calm Calm - N/A   Clear
11:53 PM 19.9 °F - 10.0 °F 65% 30.56 in 10.0 mi Calm Calm - N/A   Mostly Cloudy